Weather History for Poplar Bluff, MO

Change the Weather History Date:

Monday, February 11, 2013

  Actual Average Record
Temperature  
Mean Temperature 46 °F -  
Max Temperature 57 °F 47 °F 76 °F (1938)
Min Temperature 36 °F 25 °F -3 °F (1933)
Degree Days  
Heating Degree Days 18    
Moisture  
Dew Point 29 °F    
Average Humidity 53    
Maximum Humidity 86    
Minimum Humidity 28    
Precipitation  
Precipitation 0.00 in - - ()
Sea Level Pressure  
Sea Level Pressure 30.09 in    
Wind  
Wind Speed 9 mph (West)    
Max Wind Speed 16 mph    
Max Gust Speed 30 mph    
Visibility 10 miles    
Events      
Averages and records for this station are not official NWS values.
T = Trace of Precipitation, MM = Missing Value Source: NWS Daily Summary

Daily Weather History Graph

Daily Weather History Graph

Search for Another Location

Airport:

Trip Planner

Search our weather history database for the weather conditions in past years. The results will help you decide how hot, cold, wet, or windy it might be!

Date:

Astronomy

Feb. 11, 2013 Rise Set
Actual Time 6:53 AM CST 5:37 PM CST
Civil Twilight 6:27 AM CST 6:04 PM CST
Nautical Twilight 5:56 AM CST 6:35 PM CST
Astronomical Twilight 5:26 AM CST 7:05 PM CST
Moon 7:21 AM CST (2/11) 7:30 PM CST (2/11)
Length of Visible Light 11h 37m
Length of Day
10h 44m
Waxing Crescent, 3% of the Moon is Illuminated
Feb 11
Waxing Crescent
Feb 17
First Quarter
Feb 25
Full
Mar 4
Last Quarter
Mar 11
New

Hourly Weather History & Observations

Time (CST) Temp. Windchill Dew Point Humidity Pressure Visibility Wind Dir Wind Speed Gust Speed Precip Events Conditions
12:53 AM 52.0 °F - 30.9 °F 45% 29.91 in 10.0 mi West 13.8 mph 23.0 mph N/A   Clear
1:53 AM 50.0 °F - 28.0 °F 43% 29.95 in 10.0 mi West 16.1 mph 29.9 mph N/A   Clear
2:53 AM 46.0 °F 40.2 °F 27.0 °F 47% 29.99 in 10.0 mi West 12.7 mph 24.2 mph N/A   Clear
3:53 AM 43.0 °F 36.8 °F 27.0 °F 53% 30.00 in 10.0 mi WNW 11.5 mph 20.7 mph N/A   Clear
4:53 AM 42.1 °F 37.7 °F 26.1 °F 53% 30.03 in 10.0 mi West 6.9 mph - N/A   Clear
5:53 AM 39.9 °F 35.8 °F 26.1 °F 58% 30.06 in 10.0 mi SW 5.8 mph - N/A   Clear
6:53 AM 39.0 °F 36.8 °F 26.1 °F 60% 30.06 in 10.0 mi West 3.5 mph - N/A   Clear
7:53 AM 37.0 °F 33.3 °F 28.9 °F 73% 30.10 in 10.0 mi South 4.6 mph - N/A   Clear
8:53 AM 46.0 °F 43.1 °F 28.0 °F 50% 30.12 in 10.0 mi WNW 5.8 mph - N/A   Clear
9:53 AM 48.0 °F - 28.0 °F 46% 30.13 in 10.0 mi WNW 10.4 mph - N/A   Clear
10:53 AM 51.1 °F - 28.0 °F 41% 30.13 in 10.0 mi WNW 9.2 mph - N/A   Clear
11:53 AM 54.0 °F - 27.0 °F 35% 30.13 in 10.0 mi WNW 12.7 mph 19.6 mph N/A   Clear
12:53 PM 55.0 °F - 27.0 °F 34% 30.12 in 10.0 mi West 10.4 mph 17.3 mph N/A   Clear
1:53 PM 57.0 °F - 26.1 °F 30% 30.11 in 10.0 mi West 8.1 mph - N/A   Clear
2:53 PM 57.9 °F - 26.1 °F 30% 30.10 in 10.0 mi West 4.6 mph 18.4 mph N/A   Clear
3:53 PM 57.9 °F - 25.0 °F 28% 30.09 in 10.0 mi WNW 8.1 mph - N/A   Clear
4:53 PM 55.0 °F - 33.1 °F 43% 30.09 in 10.0 mi SSW 4.6 mph - N/A   Clear
5:53 PM 50.0 °F - 36.0 °F 59% 30.10 in 10.0 mi SSW 5.8 mph - N/A   Clear
6:53 PM 48.9 °F - 34.0 °F 56% 30.11 in 10.0 mi Calm Calm - N/A   Clear
7:53 PM 46.0 °F - 36.0 °F 68% 30.14 in 10.0 mi Calm Calm - N/A   Clear
8:53 PM 42.1 °F - 35.1 °F 76% 30.15 in 10.0 mi Calm Calm - N/A   Clear
9:53 PM 39.0 °F - 34.0 °F 82% 30.15 in 10.0 mi Calm Calm - N/A   Clear
10:53 PM 36.0 °F - 32.0 °F 86% 30.16 in 10.0 mi Calm Calm - N/A   Clear
11:53 PM 36.0 °F - 32.0 °F 86% 30.17 in 10.0 mi Calm Calm - N/A   Clear